Terminal Aerodrome Forecast
Issued by NWS Cleveland, OH

Home | Current Version | Previous Version | Text Only | Print | Product List | Glossary Off
Versions: 1 2 3 4 5 6 7 8 9 10 11 12 13 14 15 16 17 18 19 20 21 22 23 24 25 26 27 28 29 30 31

000
FTUS41 KCLE 301700 AAA
TAFCLE
TAF AMD
KCLE 301740Z 3018/0124 33008KT P6SM SCT008 OVC015
      TEMPO 3018/3022 3SM -RA BR
     FM302200 34008KT P6SM VCSH BKN020
     FM010600 02004KT 2SM BR BKN003
     FM010900 08002KT 3/4SM BR VV003
     FM011500 07004KT P6SM OVC010
     FM011800 04006KT P6SM BKN020=

USA.gov is the U.S. government's official web portal to all federal, state and local government web resources and services.